{"data":{"norad_id":63270,"intl_designator":"2025-053F","name":"STARLINK-11614 [DTC]","alt_names":[],"object_type":"PAYLOAD","status":"ACTIVE","operator":null,"country":"US","launch_date":"2025-03-15","launch_site_code":"AFETR","launch_vehicle":null,"mission":null,"orbit_class":"UNKNOWN","rcs_meters":null,"size_class":null,"mass_kg":null,"dimensions":null,"purposes":["comms"],"wikipedia_slug":null,"has_3d_model":false,"image_url":null,"decayed_at":null,"tle_current":{"epoch":"2026-09-20T08:34:53.301504Z","epoch_age_seconds":171175,"freshness":"FRESH","line1":"1 63270U 25053F   26263.35756136  .00132833  00000+0  10204-2 0  9996","line2":"2 63270  42.9999  19.0205 0001619 270.5866  89.4816 15.70881542 88283","mean_motion":15.70881542,"eccentricity":0.0001619,"inclination_deg":42.9999,"raan_deg":19.0205,"arg_perigee_deg":270.5866,"mean_anomaly_deg":89.4816,"bstar":0.0010204,"rev_number":8828,"period_min":91.668274245977,"perigee_km":355.28601166645,"apogee_km":357.4666470825,"semimajor_km":6734.5133293745,"source":"CELESTRAK","updated_at":"2026-09-21T09:00:34.963225Z"}}}